Location: São Paulo
(23.5507°S, 46.6334°W)
Time: 11:39:38
(UTC-03:00)

Injun/Solrad 3 - Pass Details

Date: 25 February 2026
Orbit: 871 x 985 km, 66.8° (Epoch: 13 March)

Event Time Altitude Azimuth Distance (km) Brightness Sun altitude
Rises 20:18:34 0° 350° (N) 3,666 10.9 -22.9°
Reaches altitude 10° 20:21:10 10° 354° (N) 2,728 10.2 -23.4°
Maximum altitude 20:27:25 57° 70° (ENE) 1,153 8.0 -24.7°
Drops below altitude 10° 20:33:41 10° 147° (SSE) 2,737 10.2 -26.1°
Sets 20:36:17 0° 151° (SSE) 3,679 11.0 -26.6°
